This is the latest recevied weather packets stored in our database for station/object KB1JLI. If no packets are shown the sender has not sent any weather packets the latest 10 day(s).
| Time | Temp. | Humidity | Pressure | Rain* | Wind** | Luminosity | Snow |
|---|---|---|---|---|---|---|---|
| 1777644955 | 11.67° C | 51% | 1009.9 hPa | 0 mm | - | 588 W/m² | - |
| 1777644653 | 11.67° C | 54% | 1009.8 hPa | 0 mm | - | 568 W/m² | - |
| 1777644349 | 11.67° C | 53% | 1009.8 hPa | 0 mm | - | 560 W/m² | - |
| 1777644045 | 11.67° C | 53% | 1009.8 hPa | 0 mm | - | 549 W/m² | - |
| 1777643742 | 11.67° C | 53% | 1009.8 hPa | 0 mm | - | 538 W/m² | - |
| 1777643440 | 11.67° C | 53% | 1009.9 hPa | 0 mm | - | 524 W/m² | - |
| 1777642833 | 11.11° C | 58% | 1009.9 hPa | 0 mm | - | 506 W/m² | - |
| 1777642530 | 11.11° C | 56% | 1009.7 hPa | 0 mm | - | 494 W/m² | - |
| 1777642226 | 11.11° C | 57% | 1009.8 hPa | 0 mm | - | 482 W/m² | - |
| 1777641923 | 11.11° C | 57% | 1009.8 hPa | 0 mm | - | 469 W/m² | - |
| 1777641619 | 10.56° C | 59% | 1009.8 hPa | 0 mm | - | 457 W/m² | - |
| 1777641314 | 10.56° C | 59% | 1009.9 hPa | 0 mm | - | 445 W/m² | - |
| 1777641009 | 10.56° C | 62% | 1009.9 hPa | 0 mm | - | 431 W/m² | - |
| 1777638887 | 10° C | 67% | 1009.6 hPa | 0 mm | - | 337 W/m² | - |
| 1777638279 | 9.44° C | 69% | 1009.6 hPa | 0 mm | - | 310 W/m² | - |
| 1777637975 | 9.44° C | 71% | 1009.4 hPa | 0 mm | - | 292 W/m² | - |
| 1777637672 | 8.89° C | 71% | 1009.7 hPa | 0 mm | - | 278 W/m² | - |
| 1777637369 | 9.44° C | 72% | 1009.6 hPa | 0 mm | - | 262 W/m² | - |
| 1777637066 | 8.89° C | 74% | 1009.7 hPa | 0 mm | - | 247 W/m² | - |
| 1777636761 | 8.89° C | 75% | 1009.5 hPa | 0 mm | - | 233 W/m² | - |
| 1777636458 | 8.89° C | 75% | 1009.6 hPa | 0 mm | - | 220 W/m² | - |
| 1777635546 | 8.33° C | 77% | 1009.5 hPa | 0 mm | - | 176 W/m² | - |
| 1777635242 | 7.78° C | 78% | 1009.5 hPa | 0 mm | - | 164 W/m² | - |
| 1777634939 | 7.78° C | 78% | 1009.4 hPa | 0 mm | - | 155 W/m² | - |
| 1777634635 | 7.78° C | 80% | 1009.3 hPa | 0 mm | - | 35 W/m² | - |
* Rain latest hour (hover to see other rain measurements)
** Current wind speed in m/s (hover to see current wind gust speed)